Date String (YYYY-MM-DD hh:mm:ss) UTC,Instrument flags,Ambient pressure (hPa),Sample flow (lpm),Bypass flow (lpm),Sample temperature (°C),Ambient temperature (°C),ASC tube jacket temperature (°C),LED temperature (°C),Box temperature (°C),Sample RH (%),Span deviation,Mass concentration (μg/m³),Mass concentration (μg/m³),Mass concentration (μg/m³)
DateTimeUTC,F1_M11,P_M11,Q1_M11,Q2_M11,T1_M11,T2_M11,T3_M11,T4_M11,T5_M11,U1_M11,ZSPAN_M11,X0_M11,X2_M11,X1_M11
2023-01-29 22:00:00,,0824.0,4.99,0.00,22.5,20.7,00.0,31.5,24.0,04.8,0002.7,0010.21,0006.24,0005.48
2023-01-29 22:01:00,,0824.1,5.03,0.00,22.5,21.6,00.0,31.4,24.3,04.8,0002.8,0010.29,0006.25,0005.47
2023-01-29 22:02:00,,0824.1,5.00,0.00,22.7,22.6,00.0,31.4,24.6,04.7,0003.3,0010.31,0006.30,0005.49
2023-01-29 22:03:00,,0824.1,4.99,0.00,22.8,23.0,00.0,31.5,24.7,04.7,0003.1,0009.92,0006.29,0005.49
2023-01-29 22:04:00,,0824.1,5.02,0.00,22.8,22.5,00.0,31.5,24.6,04.6,0003.2,0009.77,0006.24,0005.48
2023-01-29 22:05:00,,0824.1,5.00,0.00,22.7,21.9,00.0,31.5,24.5,04.6,0003.3,0009.77,0006.23,0005.49
2023-01-29 22:06:00,,0824.1,5.00,0.00,22.7,21.5,00.0,31.5,24.4,04.6,0003.2,0009.79,0006.22,0005.50
2023-01-29 22:07:00,,0824.1,5.01,0.00,22.6,21.2,00.0,31.5,24.2,04.6,0002.7,0010.48,0006.28,0005.52
2023-01-29 22:08:00,,0824.1,5.00,0.00,22.6,21.0,00.0,31.5,24.2,04.6,0002.7,0010.92,0006.31,0005.53
2023-01-29 22:09:00,,0824.1,5.01,0.00,22.6,20.8,00.0,31.5,24.1,04.7,0002.8,0010.97,0006.30,0005.53
2023-01-29 22:10:00,,0824.1,5.01,0.00,22.5,20.7,00.0,31.5,24.1,04.7,0003.0,0010.90,0006.29,0005.53
2023-01-29 22:11:00,,0824.1,5.02,0.00,22.5,21.4,00.0,31.4,24.3,04.7,0003.0,0010.90,0006.29,0005.53
2023-01-29 22:12:00,,0824.1,5.00,0.00,22.7,22.4,00.0,31.4,24.5,04.6,0002.5,0010.96,0006.33,0005.54
2023-01-29 22:13:00,,0824.1,5.00,0.00,22.8,23.0,00.0,31.4,24.7,04.6,0001.9,0010.92,0006.31,0005.53
2023-01-29 22:14:00,,0824.1,5.00,0.00,22.8,22.5,00.0,31.5,24.7,04.6,0001.7,0010.88,0006.30,0005.54
2023-01-29 22:15:00,,0824.1,5.00,0.00,22.8,22.0,00.0,31.5,24.5,04.6,0002.1,0010.91,0006.33,0005.55
2023-01-29 22:16:00,,0824.1,4.99,0.00,22.7,21.6,00.0,31.5,24.4,04.6,0002.2,0011.04,0006.39,0005.57
2023-01-29 22:17:00,,0824.1,4.99,0.00,22.7,21.3,00.0,31.5,24.3,04.6,0001.9,0010.98,0006.40,0005.58
2023-01-29 22:18:00,,0824.0,5.00,0.00,22.6,21.0,00.0,31.5,24.2,04.6,0002.1,0010.29,0006.35,0005.59
2023-01-29 22:19:00,,0824.1,5.02,0.00,22.6,20.8,00.0,31.5,24.1,04.6,0002.2,0009.97,0006.38,0005.59
2023-01-29 22:20:00,,0824.1,5.01,0.00,22.5,20.6,00.0,31.5,24.0,04.7,0002.4,0009.90,0006.40,0005.60
2023-01-29 22:21:00,,0824.1,4.99,0.00,22.5,21.2,00.0,31.4,24.2,04.7,0002.1,0009.90,0006.39,0005.59
2023-01-29 22:22:00,,0824.1,5.00,0.00,22.6,22.2,00.0,31.4,24.4,04.6,0002.0,0009.85,0006.36,0005.57
2023-01-29 22:23:00,,0824.1,4.99,0.00,22.7,22.9,00.0,31.4,24.7,04.6,0002.3,0009.67,0006.28,0005.55
2023-01-29 22:24:00,,0824.1,5.00,0.00,22.7,22.4,00.0,31.5,24.6,04.6,0002.5,0009.63,0006.25,0005.52
2023-01-29 22:25:00,,0824.1,5.00,0.00,22.7,21.9,00.0,31.5,24.4,04.6,0002.4,0009.55,0006.21,0005.50
2023-01-29 22:26:00,,0824.1,5.00,0.00,22.7,21.5,00.0,31.5,24.3,04.6,0002.0,0009.46,0006.17,0005.47
2023-01-29 22:27:00,,0824.0,5.00,0.00,22.6,21.1,00.0,31.5,24.1,04.7,0002.0,0009.33,0006.11,0005.45
2023-01-29 22:28:00,,0824.0,4.99,0.00,22.5,20.8,00.0,31.5,24.0,04.7,0002.4,0009.32,0006.11,0005.44
2023-01-29 22:29:00,,0824.0,5.03,0.00,22.5,20.6,00.0,31.4,24.0,04.7,0002.7,0009.50,0006.15,0005.44
2023-01-29 22:30:00,,0824.0,5.00,0.00,22.5,21.2,00.0,31.4,24.1,04.7,0002.9,0009.53,0006.16,0005.43
2023-01-29 22:31:00,,0824.1,5.00,0.00,22.6,22.3,00.0,31.4,24.4,04.7,0002.5,0009.50,0006.14,0005.42
2023-01-29 22:32:00,,0824.1,5.00,0.00,22.7,22.9,00.0,31.4,24.6,04.7,0002.4,0009.55,0006.17,0005.43
2023-01-29 22:33:00,,0824.2,4.99,0.00,22.7,22.5,00.0,31.5,24.6,04.7,0002.4,0009.55,0006.17,0005.43
2023-01-29 22:34:00,,0824.2,4.99,0.00,22.7,21.9,00.0,31.5,24.4,04.7,0002.1,0009.67,0006.20,0005.44
2023-01-29 22:35:00,,0824.3,5.00,0.00,22.6,21.4,00.0,31.5,24.3,04.7,0001.8,0009.79,0006.21,0005.44
2023-01-29 22:36:00,,0824.3,5.02,0.00,22.6,21.1,00.0,31.5,24.1,04.7,0001.4,0010.00,0006.26,0005.45
2023-01-29 22:37:00,,0824.2,4.99,0.00,22.5,20.8,00.0,31.5,24.1,04.7,0001.4,0010.14,0006.32,0005.48
2023-01-29 22:38:00,,0824.3,5.01,0.00,22.5,20.6,00.0,31.4,24.0,04.7,0001.5,0010.24,0006.37,0005.51
2023-01-29 22:39:00,,0824.3,4.95,0.00,22.5,21.1,00.0,31.4,24.1,04.6,0001.9,0010.22,0006.37,0005.51
2023-01-29 22:40:00,,0824.4,5.01,0.00,22.6,22.2,00.0,31.4,24.4,04.6,0002.2,0010.12,0006.36,0005.52
2023-01-29 22:41:00,,0824.3,5.00,0.00,22.7,22.9,00.0,31.4,24.7,04.6,0002.4,0010.06,0006.32,0005.52
2023-01-29 22:42:00,,0824.3,5.00,0.00,22.7,22.6,00.0,31.4,24.6,04.6,0002.8,0010.12,0006.35,0005.55
2023-01-29 22:43:00,,0824.3,4.99,0.00,22.7,22.0,00.0,31.5,24.5,04.6,0002.9,0010.21,0006.40,0005.56
2023-01-29 22:44:00,,0824.4,4.99,0.00,22.6,21.5,00.0,31.5,24.3,04.6,0003.0,0010.30,0006.43,0005.57
2023-01-29 22:45:00,,0824.4,5.00,0.00,22.6,21.1,00.0,31.5,24.2,04.6,0003.1,0010.49,0006.43,0005.57
2023-01-29 22:46:00,,0824.4,5.01,0.00,22.5,20.9,00.0,31.5,24.1,04.6,0003.1,0010.47,0006.46,0005.59
2023-01-29 22:47:00,,0824.4,4.99,0.00,22.5,20.6,00.0,31.4,24.0,04.6,0003.3,0010.46,0006.48,0005.59
2023-01-29 22:48:00,,0824.5,4.99,0.00,22.4,20.6,00.0,31.4,23.9,04.6,0003.6,0010.47,0006.48,0005.59
2023-01-29 22:49:00,,0824.4,4.98,0.00,22.5,21.4,00.0,31.4,24.2,04.6,0003.7,0010.81,0006.43,0005.58
2023-01-29 22:50:00,,0824.4,5.00,0.00,22.6,22.3,00.0,31.4,24.4,04.6,0003.2,0010.77,0006.41,0005.57
2023-01-29 22:51:00,,0824.6,5.00,0.00,22.7,22.7,00.0,31.4,24.6,04.6,0002.8,0010.77,0006.39,0005.55
2023-01-29 22:52:00,,0824.6,4.99,0.00,22.7,22.1,00.0,31.4,24.5,04.5,0002.5,0010.69,0006.39,0005.54
2023-01-29 22:53:00,,0824.6,5.01,0.00,22.6,21.7,00.0,31.4,24.3,04.6,0002.2,0011.05,0006.39,0005.53
2023-01-29 22:54:00,,0824.7,5.01,0.00,22.6,21.3,00.0,31.4,24.1,04.6,0002.1,0011.22,0006.39,0005.52
2023-01-29 22:55:00,,0824.4,5.00,0.00,22.5,20.9,00.0,31.4,24.0,04.6,0002.1,0011.20,0006.38,0005.53
2023-01-29 22:56:00,,0824.6,5.00,0.00,22.4,20.7,00.0,31.4,24.0,04.6,0002.4,0011.10,0006.43,0005.55
2023-01-29 22:57:00,,0824.4,5.01,0.00,22.4,20.6,00.0,31.4,23.9,04.6,0002.4,0011.00,0006.40,0005.56
2023-01-29 22:58:00,,0824.6,5.01,0.00,22.4,21.4,00.0,31.3,24.1,04.6,0002.6,0010.85,0006.37,0005.57
2023-01-29 22:59:00,,0824.6,4.99,0.00,22.5,22.4,00.0,31.3,24.4,04.6,0002.4,0010.77,0006.36,0005.57
